Regional Weather Roundup
Issued by NWS Raleigh/Durham, NC

Home | Current Version | Previous Version | Text Only | Print | Product List | Glossary On
Versions: 1 2 3 4 5 6 7 8 9 10 11 12 13 14 15 16 17 18 19 20 21 22 23 24 25 26 27 28 29 30 31 32 33 34 35 36 37 38 39 40 41 42 43 44 45 46 47 48 49 50
000
ASUS42 KRAH 281210
RWRRAH
NORTH CAROLINA WEATHER ROUNDUP
NATIONAL WEATHER SERVICE RALEIGH NC
800 AM EDT WED SEP 28 2016

NOTE: "FAIR" INDICATES FEW OR NO CLOUDS BELOW 12,000 FEET WITH NO
SIGNIFICANT WEATHER AND/OR OBSTRUCTIONS TO VISIBILITY.

NCZ001-053-055-056-065-067-281300-
WESTERN NORTH CAROLINA

CITY           SKY/WX    TMP DP  RH WIND       PRES   REMARKS
ASHEVILLE      FOG       63  60  90 NW3       29.99S VSB 1
JEFFERSON      FOG       55  55  99 CALM      30.01R VSB 1/2
MORGANTON      FOG       64  64 100 CALM      29.98S VSB 1/4
HICKORY        FOG       65  65 100 CALM      29.93S VSB 1/2
RUTHERFORDTON  FOG       63  63 100 CALM      29.94R VSB<1/4
MOUNT AIRY     CLOUDY    68  66  94 CALM      29.96S FOG
BOONE            N/A     54  54 100 CALM      30.02R FOG
$$

NCZ021-022-025-041-071-084-088-281300-
CENTRAL NORTH CAROLINA

CITY           SKY/WX    TMP DP  RH WIND       PRES   REMARKS
CHARLOTTE      MOCLDY    68  65  90 S7        29.94R
GREENSBORO     MOCLDY    67  67 100 CALM      29.93S FOG
WINSTON-SALEM  CLOUDY    69  65  86 SW3       29.95R
RALEIGH-DURHAM MOCLDY    70  68  93 CALM      29.94S
FORT BRAGG     PTCLDY    69  68  96 SE5       29.92S
FAYETTEVILLE   PTCLDY    70  68  93 S3        29.93R
BURLINGTON     MOCLDY    65  65 100 E3        29.94R
LAURINBURG     CLOUDY    71  69  93 SE3       29.93R
$$

NCZ011-015-027-028-043-044-047-080-103-281300-
NORTHEASTERN NORTH CAROLINA

CITY           SKY/WX    TMP DP  RH WIND       PRES   REMARKS
ROCKY MT-WILSO PTSUNNY   70  70 100 CALM      29.94R
GREENVILLE     PTSUNNY   70  70 100 CALM      29.96R FOG
WASHINGTON     SUNNY     66  65  98 CALM      29.95R
ELIZABETH CITY MOSUNNY   69  69 100 CALM      29.95R
MANTEO         PTSUNNY   72  72 100 CALM      29.96R
CAPE HATTERAS  SUNNY     75  72  90 CALM      29.94R
$$

NCZ078-087-090-091-093-098-101-281300-
SOUTHEASTERN NORTH CAROLINA

CITY           SKY/WX    TMP DP  RH WIND       PRES   REMARKS
LUMBERTON      PTCLDY    69  68  96 CALM      29.93R FOG
GOLDSBORO      MOSUNNY   71  71 100 S3        29.93R
KINSTON        MOSUNNY   70  70 100 CALM      29.95R
KENANSVILLE    SUNNY     66  66 100 CALM      29.94R FOG
NEW BERN       SUNNY     70  68  93 CALM      29.97R
CHERRY POINT   SUNNY     68  67  96 CALM      29.95S FOG
BEAUFORT       SUNNY     72  71  97 CALM      29.94F
JACKSONVILLE   MOSUNNY   69  68  96 CALM      29.95R
WILMINGTON     MOSUNNY   71  69  93 CALM      29.95S
$$




USA.gov is the U.S. government's official web portal to all federal, state and local government web resources and services.